Wind_Speed
2 4 4 2 1 2 4 5 4 14 13 11 15 3 6 6 2 7 21 17 18 17 15 13 11 11 11 10 11 11 12 11 12 17 16 17 16 16 15 14 14 14 14 13 15 16 16 15 16
2 4 3 1 2 5 3 4 12 13 12 19 8 12 4 4 4 16 19 21 17 17 16 13 12 11 12 11 10 10 11 14 16 18 17 16 15 15 14 14 14 16 15 16 16 15 16 16 17
1 3 2 1 3 4 3 5 13 10 21 9 6 7 4 3 12 16 21 21 19 17 15 13 12 11 11 11 11 11 13 14 15 15 14 14 13 13 14 14 15 15 16 15 15 15 16 16 16
2 2 1 2 10 6 3 11 19 19 12 6 13 9 7 11 14 14 24 20 19 17 15 13 12 11 11 10 10 13 13 14 14 14 14 13 12 11 12 14 15 16 17 17 17 16 15 15 15
2 0 3 3 11 8 11 14 16 12 6 7 4 7 12 4 10 22 22 20 17 15 14 11 11 9 10 11 13 12 13 13 13 13 14 13 12 13 12 13 15 15 17 15 15 17 17 15 15
3 1 2 4 8 8 10 10 11 9 9 8 15 15 5 8 16 22 20 18 15 14 12 10 11 9 10 10 10 11 11 13 13 10 12 12 13 12 12 13 16 16 17 17 18 19 19 18 17
3 2 3 10 12 8 5 3 6 9 10 7 15 7 7 11 20 20 18 16 13 11 12 12 10 10 9 9 9 10 11 11 13 10 11 12 12 11 10 12 15 16 17 18 17 16 16 16 17
2 2 3 2 2 4 5 3 9 7 5 13 11 6 10 17 23 19 17 14 12 11 11 12 11 11 10 9 8 10 10 10 11 12 13 13 12 11 12 12 14 15 16 15 15 14 15 16 16
2 3 4 3 5 1 5 3 6 5 15 7 1 12 15 26 23 19 17 14 12 12 11 11 11 13 12 12 11 9 11 8 9 11 12 12 13 13 12 13 14 14 14 11 11 12 12 13 14
1 2 4 4 10 5 3 4 7 5 11 5 10 17 22 25 21 17 15 14 13 11 12 11 12 12 15 16 11 11 10 9 9 9 12 13 14 14 14 14 14 13 12 10 10 10 10 11 12
1 4 7 7 16 22 6 2 2 13 6 5 24 23 23 23 19 15 14 13 14 13 13 14 14 14 16 17 15 16 13 11 9 12 13 15 16 16 15 14 13 12 11 9 7 8 7 7 9
2 7 4 8 8 14 5 4 7 6 1 11 24 26 24 20 18 16 14 14 14 14 14 14 15 15 15 15 16 16 12 11 12 13 13 16 15 14 12 10 10 9 7 6 4 5 5 7 8
2 5 6 8 14 11 8 6 7 5 2 19 20 21 21 19 17 15 13 14 14 14 14 14 16 17 16 15 16 13 13 12 13 13 14 15 13 10 8 8 7 7 7 6 7 7 7 8 11
7 12 11 8 7 6 10 4 6 5 8 17 20 21 19 18 17 15 16 16 15 13 15 15 17 16 16 14 13 14 15 14 13 13 14 13 9 6 6 6 7 9 7 6 7 6 7 8 11
9 9 9 8 3 4 14 4 7 6 9 17 19 19 18 18 15 16 14 15 16 14 16 17 16 15 15 15 15 15 16 14 14 14 13 9 5 6 8 7 9 7 5 5 4 3 6 10 11
4 4 3 2 3 5 4 4 10 14 6 15 19 20 20 19 15 13 14 14 17 17 19 18 16 15 15 15 15 17 16 13 14 14 11 7 7 8 7 9 8 6 4 2 2 4 6 8 11
2 2 4 4 2 4 6 2 18 18 12 15 18 20 20 17 17 16 15 16 18 18 19 17 15 13 11 13 18 18 17 17 16 12 9 9 8 7 7 8 7 6 6 5 5 8 8 9 10
5 4 3 4 4 0 4 4 6 16 17 16 14 22 21 20 21 18 17 17 18 19 18 16 16 15 14 15 17 17 18 17 14 12 10 10 9 6 8 8 6 5 5 6 7 8 8 8 8
4 5 6 4 4 4 2 5 7 10 15 22 21 25 23 24 18 17 18 19 18 19 20 17 17 18 17 17 18 17 16 17 13 12 11 9 9 7 10 8 6 5 4 5 5 5 5 6 6
3 6 5 4 7 3 4 6 5 7 9 19 18 21 25 19 18 19 20 22 21 20 19 18 17 20 20 19 17 16 17 16 13 11 10 10 10 6 6 6 5 5 3 3 4 4 4 3 6
4 3 6 1 6 2 3 4 6 6 7 12 13 13 16 23 23 22 23 25 23 24 21 19 19 19 21 20 18 17 15 13 13 9 8 11 10 5 7 7 6 6 4 4 1 1 2 1 3
6 7 6 7 3 1 2 3 6 11 13 14 21 18 18 21 24 23 24 27 27 26 22 21 21 19 22 19 18 18 18 14 11 9 8 10 10 7 6 6 7 9 6 6 4 3 2 3 4
2 8 7 4 2 2 4 3 3 10 14 18 26 24 23 21 24 26 27 29 28 27 25 23 23 22 23 18 19 19 18 15 12 11 10 9 12 10 8 6 6 9 10 6 6 6 5 5 7
12 7 3 3 2 3 2 5 5 9 21 20 26 35 29 23 26 27 25 25 28 28 26 25 24 25 23 20 18 17 17 17 14 12 12 11 11 13 12 10 7 7 8 9 8 7 5 5 4
7 8 2 3 3 2 3 5 9 6 10 19 28 35 32 26 27 26 24 27 29 30 29 27 26 26 27 25 22 20 18 16 14 12 13 13 13 12 12 11 9 8 9 10 11 10 6 5 5
14 13 5 4 3 1 4 5 1 11 16 14 21 36 30 29 28 27 27 32 33 32 30 29 28 26 26 25 23 22 20 18 16 15 14 13 13 12 10 12 12 11 10 12 12 12 12 9 7
6 7 2 0 2 3 2 4 6 11 10 6 14 27 29 27 28 29 27 31 34 33 32 30 31 28 26 25 23 23 22 20 18 17 15 14 14 14 14 12 13 13 12 12 13 11 12 13 12
7 12 4 2 4 5 2 3 3 16 14 8 11 23 28 26 25 26 28 30 37 35 32 30 30 30 26 26 24 22 22 20 18 19 19 17 14 14 14 13 13 13 14 13 13 14 14 14 13
5 6 3 1 5 2 3 2 5 12 13 11 15 20 26 28 27 31 33 35 38 36 35 31 28 30 29 26 25 23 22 21 18 18 18 18 14 15 13 14 14 15 16 15 14 14 17 16 14
1 1 8 7 5 1 3 1 7 10 11 11 9 15 20 26 34 27 34 34 39 38 37 33 30 29 27 27 26 24 22 23 21 20 18 18 18 17 17 18 17 18 20 19 17 16 16 17 17
Wind_Direction
34 351 8 40 160 79 83 110 122 139 158 153 147 159 126 55 20 102 145 153 155 153 151 141 133 130 125 118 118 114 114 111 111 115 108 108 106 107 107 103 105 107 105 107 102 97 97 99 105
10 349 22 21 83 115 86 128 143 151 148 135 101 120 84 73 76 135 142 149 154 151 146 141 137 131 125 121 116 119 118 111 113 116 114 108 106 103 104 105 107 110 109 104 103 96 95 99 97
20 24 15 45 90 94 112 124 139 139 138 126 111 72 67 79 124 136 149 149 154 150 144 140 135 134 126 127 125 124 126 116 113 114 114 111 110 109 108 103 103 102 102 99 94 95 91 97 90
344 10 3 64 95 46 101 129 125 126 130 74 117 78 75 113 133 145 150 152 153 150 143 141 140 137 130 129 127 133 125 122 120 122 119 114 112 113 111 112 107 103 104 94 96 93 92 92 86
68 16 58 83 61 94 105 122 136 130 101 114 113 106 107 101 151 148 152 154 157 150 140 145 142 133 133 127 130 130 131 127 123 117 113 113 110 109 109 116 118 108 103 97 95 96 92 89 89
21 23 63 94 103 98 87 113 120 106 112 115 117 117 103 127 152 151 153 153 159 155 149 140 143 146 136 138 137 138 132 122 118 115 118 116 112 108 108 113 120 117 108 100 98 94 90 86 85
104 75 61 99 116 104 67 61 105 114 123 111 137 109 132 149 159 153 153 156 155 152 153 149 148 147 138 142 134 136 123 131 128 136 131 118 113 120 120 119 122 118 110 106 102 96 89 84 80
88 85 81 36 103 99 14 72 116 117 89 132 134 149 161 165 160 156 158 157 159 158 154 153 153 147 138 135 133 126 134 134 128 124 121 117 115 123 119 113 122 118 112 105 98 94 88 81 76
120 85 121 155 121 250 346 65 97 104 132 119 78 144 151 157 161 160 163 163 168 170 164 154 152 143 146 134 130 140 141 133 123 124 125 123 124 118 104 114 120 121 116 108 99 93 82 69 67
44 116 145 132 130 196 339 33 117 135 144 86 108 144 153 159 163 166 166 167 170 169 167 156 147 148 145 144 161 151 149 150 133 131 127 123 117 115 110 108 116 126 120 109 102 89 74 64 60
97 25 113 132 153 196 207 33 126 152 175 185 152 150 160 162 169 174 171 173 172 168 164 159 157 156 157 156 149 166 158 147 148 138 127 120 117 112 107 104 106 116 117 113 97 77 59 54 55
38 100 85 148 169 171 176 322 127 147 25 165 160 158 162 168 171 175 171 171 172 173 168 164 159 158 157 163 162 169 155 157 152 141 130 126 118 113 106 105 111 116 122 114 86 73 53 52 63
179 97 59 131 138 132 192 67 119 117 152 154 158 162 165 176 178 174 171 170 170 174 169 165 158 160 163 165 167 176 167 161 156 143 138 132 123 118 117 117 120 130 124 110 100 79 73 74 74
102 98 92 95 122 113 142 113 95 56 148 159 166 173 178 183 182 178 179 172 167 166 166 160 157 165 168 171 173 171 169 163 158 148 141 137 128 119 132 125 131 136 125 122 109 98 84 91 92
120 92 85 61 76 87 105 124 167 150 164 175 181 182 188 192 194 189 185 177 172 159 157 147 151 163 168 168 169 162 164 161 160 156 152 145 129 121 133 133 131 139 135 133 108 115 99 104 109
121 139 126 61 149 159 194 163 214 194 189 194 190 195 197 201 202 197 192 185 176 165 157 148 145 148 160 166 173 168 164 163 163 160 159 154 140 136 135 129 118 123 103 76 75 150 137 114 118
73 165 149 154 69 161 197 169 183 186 232 200 204 203 203 201 209 204 199 192 188 175 171 166 156 147 151 163 183 183 177 166 162 164 164 162 150 142 138 134 124 108 91 80 101 117 133 123 120
172 156 156 170 165 36 192 151 153 192 221 234 225 211 208 207 210 207 202 196 197 186 180 171 161 160 158 152 156 166 170 172 173 171 172 168 158 157 156 150 138 120 92 73 94 130 131 124 119
133 146 139 123 164 215 161 174 156 165 209 235 244 209 210 214 206 208 202 200 198 193 190 187 179 172 172 167 164 165 174 176 176 180 174 170 167 153 164 161 154 142 107 71 67 142 149 134 136
157 147 137 163 158 235 194 212 200 191 182 207 201 208 213 213 205 204 204 204 202 202 197 189 181 180 176 172 169 167 167 173 179 180 190 184 184 167 174 185 185 169 128 83 71 133 127 149 168
181 237 167 122 145 146 245 233 192 208 236 208 212 209 218 213 210 205 203 205 204 208 206 193 184 184 181 181 181 180 181 185 186 182 176 187 188 186 167 202 211 193 174 168 118 108 202 103 164
211 208 162 152 184 311 248 276 215 202 210 230 212 216 220 215 217 210 205 205 207 210 207 201 193 193 184 186 193 192 192 193 195 198 183 191 193 194 194 207 205 202 202 200 220 239 234 226 219
136 151 168 202 101 293 202 222 201 189 207 214 220 219 218 221 214 209 209 209 208 210 207 204 202 202 194 197 192 195 198 203 208 213 213 202 202 209 205 205 209 207 212 215 232 245 253 256 243
140 109 88 78 282 250 143 230 242 187 219 214 219 212 212 217 214 216 210 203 209 210 208 207 206 202 206 205 201 202 204 204 208 215 217 212 209 212 222 230 229 217 216 215 222 224 227 227 233
177 169 219 237 225 256 149 207 265 290 233 218 209 209 211 210 211 210 200 201 207 211 206 206 206 211 211 211 214 215 212 214 213 213 214 218 212 214 222 221 227 228 222 216 224 227 222 221 219
197 203 197 259 226 134 175 241 142 320 293 234 224 207 201 203 207 204 204 204 210 213 210 207 206 206 206 211 216 214 219 221 221 219 216 221 223 220 225 229 228 228 229 223 224 233 236 239 237
168 201 125 126 265 271 184 243 255 5 5 196 196 190 197 205 199 203 206 206 213 213 214 211 210 210 213 216 216 216 220 224 229 230 228 226 227 234 230 227 226 225 229 225 222 231 238 241 246
209 156 191 207 238 239 228 273 298 330 335 302 206 202 201 200 199 203 206 209 215 217 217 215 218 216 216 216 217 222 225 228 233 231 239 237 232 231 229 226 224 226 228 232 234 241 244 244 245
152 179 151 184 259 270 281 151 342 324 325 295 240 208 202 201 212 211 211 212 216 217 217 217 217 221 220 220 223 225 229 230 234 237 230 236 242 240 244 235 232 229 231 235 244 249 247 245 249
240 189 199 231 198 289 315 6 15 358 359 3 233 213 207 201 217 218 218 217 216 217 216 217 220 219 223 226 228 232 236 232 235 236 239 235 240 244 245 242 252 243 250 243 244 253 246 241 244
Height
1514 1513 1512 1512 1516 1511 1521 1522 1516 1522 1527 1527 1532 1533 1534 1538 1537 1542 1545 1548 1551 1553 1555 1557 1558 1560 1559 1560 1561 1561 1562 1564 1565 1566 1567 1569 1570 1571 1572 1572 1573 1574 1574 1575 1576 1576 1576 1577 1577
1514 1513 1513 1512 1514 1520 1525 1516 1519 1522 1525 1529 1533 1534 1536 1540 1541 1542 1546 1549 1553 1555 1557 1558 1560 1560 1561 1562 1563 1564 1566 1566 1568 1569 1570 1572 1573 1574 1575 1576 1577 1577 1577 1578 1579 1579 1579 1580 1580
1514 1514 1514 1512 1516 1524 1523 1518 1519 1524 1528 1530 1532 1535 1538 1543 1543 1546 1548 1551 1555 1557 1559 1560 1562 1563 1564 1565 1566 1567 1568 1570 1572 1572 1574 1574 1576 1577 1579 1579 1579 1579 1580 1580 1581 1582 1582 1583 1583
1515 1515 1516 1516 1519 1520 1519 1518 1521 1526 1530 1530 1532 1537 1542 1545 1547 1547 1550 1554 1556 1558 1561 1563 1564 1565 1566 1567 1568 1570 1571 1573 1575 1576 1577 1578 1579 1580 1581 1581 1581 1583 1584 1584 1584 1585 1585 1585 1585
1515 1515 1515 1518 1522 1522 1520 1521 1523 1526 1531 1534 1534 1540 1544 1547 1547 1550 1552 1556 1558 1560 1562 1565 1566 1568 1569 1569 1571 1573 1574 1575 1578 1579 1579 1581 1582 1582 1583 1584 1585 1585 1586 1586 1586 1588 1588 1588 1588
1516 1515 1519 1525 1528 1523 1524 1526 1526 1528 1533 1535 1537 1539 1547 1548 1550 1551 1554 1557 1560 1562 1564 1566 1568 1570 1571 1572 1573 1575 1577 1579 1579 1583 1582 1583 1583 1584 1586 1586 1587 1588 1589 1589 1590 1590 1591 1591 1591
1516 1518 1527 1525 1529 1527 1527 1528 1528 1529 1533 1536 1539 1541 1548 1549 1550 1553 1556 1559 1561 1563 1565 1567 1569 1571 1573 1574 1576 1578 1578 1580 1582 1582 1584 1585 1585 1586 1587 1588 1590 1591 1592 1593 1593 1594 1594 1594 1594
1517 1518 1527 1529 1533 1533 1530 1529 1532 1532 1536 1538 1540 1541 1546 1547 1551 1555 1558 1560 1562 1564 1566 1568 1570 1572 1574 1576 1578 1580 1582 1582 1583 1585 1586 1586 1588 1589 1590 1591 1592 1593 1594 1595 1596 1597 1597 1597 1596
1518 1522 1531 1531 1532 1534 1530 1529 1532 1534 1535 1539 1541 1542 1544 1546 1551 1556 1558 1560 1563 1565 1567 1569 1571 1574 1575 1577 1579 1581 1582 1586 1587 1586 1587 1588 1589 1591 1593 1593 1594 1596 1596 1598 1598 1598 1599 1599 1599
1518 1520 1523 1524 1528 1533 1532 1531 1532 1536 1536 1540 1542 1543 1546 1549 1553 1556 1558 1561 1563 1565 1567 1570 1572 1574 1577 1578 1581 1583 1584 1585 1587 1588 1589 1590 1592 1593 1595 1595 1596 1598 1599 1600 1600 1601 1601 1601 1601
1520 1521 1523 1527 1528 1529 1534 1533 1534 1536 1537 1540 1540 1544 1547 1550 1554 1557 1560 1561 1563 1566 1568 1570 1573 1576 1578 1579 1582 1584 1586 1588 1589 1590 1592 1593 1595 1596 1597 1598 1599 1600 1601 1602 1603 1603 1603 1603 1603
1520 1524 1524 1527 1529 1532 1535 1535 1535 1538 1539 1540 1543 1544 1548 1552 1554 1557 1560 1561 1564 1566 1568 1571 1574 1577 1578 1582 1583 1585 1587 1589 1591 1592 1594 1595 1597 1599 1600 1601 1601 1602 1603 1604 1605 1605 1605 1605 1605
1520 1524 1527 1529 1531 1533 1535 1538 1537 1539 1541 1542 1546 1548 1550 1553 1555 1558 1561 1562 1564 1566 1568 1571 1574 1576 1579 1582 1584 1586 1588 1590 1592 1594 1596 1597 1599 1600 1601 1602 1603 1604 1605 1606 1606 1607 1606 1607 1607
1525 1527 1529 1532 1534 1535 1536 1540 1539 1543 1544 1545 1547 1549 1552 1553 1556 1558 1560 1562 1564 1567 1569 1571 1574 1576 1580 1582 1585 1587 1589 1591 1594 1596 1597 1599 1600 1601 1602 1603 1605 1606 1607 1607 1608 1608 1608 1608 1608
1525 1528 1530 1534 1536 1538 1539 1543 1542 1542 1546 1546 1549 1550 1553 1554 1556 1559 1560 1563 1565 1568 1570 1573 1575 1577 1580 1583 1585 1587 1590 1593 1595 1597 1598 1600 1601 1602 1604 1605 1606 1607 1608 1609 1609 1609 1610 1610 1610
1524 1526 1531 1536 1537 1539 1541 1543 1542 1545 1543 1545 1549 1551 1552 1554 1557 1559 1561 1563 1566 1568 1571 1573 1576 1578 1580 1583 1585 1588 1591 1593 1595 1597 1600 1601 1602 1603 1605 1606 1607 1608 1609 1610 1610 1610 1611 1612 1612
1525 1528 1530 1536 1536 1537 1538 1540 1539 1543 1544 1542 1547 1549 1551 1554 1556 1558 1561 1563 1566 1568 1571 1574 1576 1578 1581 1582 1584 1588 1590 1593 1596 1598 1600 1602 1603 1605 1606 1607 1608 1609 1610 1610 1610 1611 1612 1613 1613
1526 1528 1530 1532 1536 1536 1537 1539 1540 1541 1544 1543 1545 1547 1549 1550 1552 1557 1560 1562 1566 1568 1571 1574 1577 1579 1582 1583 1585 1588 1591 1593 1596 1598 1600 1602 1604 1605 1607 1608 1609 1610 1610 1611 1611 1612 1613 1613 1614
1519 1523 1526 1533 1534 1535 1536 1537 1538 1541 1541 1541 1542 1544 1546 1547 1553 1556 1559 1562 1565 1568 1571 1573 1576 1579 1581 1583 1586 1588 1591 1594 1596 1598 1600 1602 1603 1605 1606 1608 1609 1610 1611 1611 1612 1612 1613 1614 1614
1521 1525 1530 1530 1533 1533 1535 1533 1536 1537 1536 1538 1539 1541 1543 1547 1550 1554 1557 1561 1563 1566 1570 1572 1576 1579 1581 1585 1587 1589 1592 1594 1596 1598 1600 1602 1603 1605 1606 1608 1609 1610 1611 1612 1612 1613 1614 1614 1615
1524 1523 1525 1525 1530 1533 1534 1531 1532 1532 1533 1534 1536 1538 1540 1543 1545 1550 1554 1558 1561 1564 1568 1571 1575 1578 1581 1584 1587 1589 1592 1594 1595 1597 1599 1601 1603 1604 1605 1607 1608 1610 1611 1612 1613 1614 1614 1615 1615
1524 1519 1523 1528 1528 1533 1528 1543 1529 1526 1529 1530 1530 1532 1535 1539 1542 1547 1551 1555 1558 1562 1567 1570 1574 1578 1581 1584 1586 1589 1591 1593 1595 1597 1599 1600 1602 1603 1605 1607 1608 1609 1610 1611 1612 1613 1614 1615 1615
1519 1519 1523 1526 1528 1531 1534 1536 1519 1522 1523 1522 1523 1527 1530 1533 1538 1541 1546 1551 1556 1561 1564 1569 1572 1576 1579 1583 1585 1588 1590 1593 1595 1597 1598 1600 1601 1603 1605 1606 1607 1607 1609 1610 1612 1613 1613 1614 1615
1519 1523 1527 1528 1529 1534 1521 1526 1510 1520 1510 1512 1516 1519 1524 1528 1534 1537 1544 1550 1554 1558 1562 1566 1570 1574 1578 1581 1584 1587 1589 1591 1593 1595 1596 1598 1600 1603 1604 1605 1605 1606 1608 1609 1610 1611 1612 1613 1614
1515 1520 1538 1543 1539 1531 1525 1532 1506 1503 1504 1503 1505 1512 1518 1523 1529 1535 1540 1546 1550 1553 1558 1563 1566 1570 1575 1578 1582 1585 1588 1590 1591 1593 1595 1596 1598 1600 1602 1603 1604 1605 1606 1608 1609 1610 1611 1612 1613
1513 1511 1524 1541 1533 1524 1527 1522 1503 1501 1497 1497 1502 1507 1515 1519 1524 1530 1535 1541 1546 1551 1555 1559 1563 1567 1571 1576 1579 1582 1585 1588 1590 1591 1593 1595 1596 1598 1599 1600 1602 1603 1604 1606 1607 1609 1610 1611 1612
1516 1519 1517 1525 1526 1524 1513 1508 1499 1496 1497 1500 1501 1506 1510 1515 1519 1525 1531 1537 1542 1547 1551 1555 1560 1565 1568 1572 1577 1580 1583 1586 1588 1590 1591 1592 1594 1595 1596 1598 1599 1601 1602 1603 1605 1606 1607 1608 1609
1505 1507 1522 1524 1538 1532 1511 1512 1509 1503 1503 1501 1501 1503 1507 1513 1517 1522 1527 1533 1538 1544 1549 1553 1557 1561 1566 1570 1574 1577 1580 1583 1585 1586 1588 1589 1590 1592 1593 1595 1596 1598 1599 1600 1602 1603 1605 1606 1606
1512 1508 1512 1518 1519 1521 1519 1510 1508 1509 1504 1501 1500 1502 1506 1510 1514 1517 1522 1528 1534 1541 1546 1550 1554 1558 1562 1567 1571 1574 1577 1580 1582 1583 1585 1586 1588 1588 1589 1592 1593 1595 1596 1597 1598 1600 1601 1602 1603
1503 1505 1502 1507 1516 1516 1514 1508 1507 1508 1503 1498 1498 1501 1505 1509 1512 1516 1521 1525 1530 1536 1542 1546 1551 1555 1559 1563 1567 1570 1574 1576 1578 1580 1582 1584 1585 1586 1588 1589 1589 1591 1592 1594 1594 1596 1597 1598 1599